Location: Street
(51.1247°N, 2.7429°W)
Time: 02:29:48
(UTC+00:00)

deb Explorer IX - Pass Details

Date: 10 December 2020
Orbit: 536 x 1104 km, 38.8° (Epoch: 20 January)

Event Time Altitude Azimuth Distance (km) Brightness Sun altitude
Rises 17:28:40 0° 262° (W) 3,775 ? -12.4°
Reaches altitude 10° 17:34:26 10° 225° (SW) 2,669 ? -13.3°
Maximum altitude 17:35:22 10° 216° (SW) 2,615 ? -13.4°
Drops below altitude 10° 17:36:18 10° 208° (SSW) 2,609 ? -13.5°
Sets 17:41:31 0° 168° (SSE) 3,360 ? -14.3°
